CAPE
0 0 0 0 2 18 36 1 3 4 2 5 19 1 0 0 0 0 0 0 0 0 0 0 0 0 230 2705 2095 1405 1061 1581 1852 1444 1002 1698 1105 1728 1466 1081 844 973 449 619
0 0 0 10 14 10 20 17 1 7 9 6 17 14 0 1 0 1 0 0 0 0 0 0 0 0 3 3006 2498 2061 1858 1409 1301 1809 1716 1498 1187 1434 1583 1174 1111 905 861 696
0 0 0 4 4 10 6 16 1 3 5 13 17 0 0 14 18 0 0 0 0 0 0 0 0 0 0 2414 2467 2215 1860 1470 2022 2145 2121 1505 944 1375 1576 1360 1431 1478 1096 932
0 0 0 0 0 13 10 30 16 21 18 0 72 1 8 0 3 12 9 0 0 0 0 0 0 0 0 1058 2937 2376 2305 1772 1837 1738 1430 1092 1020 1344 1472 1499 1357 1329 1136 948
0 0 0 0 0 1 0 22 18 6 8 0 0 31 0 25 19 0 0 0 0 0 0 0 0 0 0 592 3046 2713 2550 2315 1958 1570 1279 766 951 1644 1482 1384 1262 1278 1199 1108
0 0 0 0 3 1 3 3 19 10 10 0 0 24 0 0 0 0 0 0 0 0 0 0 0 0 0 871 3073 2919 2812 2672 2174 1684 1191 827 1122 1421 1400 1341 1349 1264 1173 1410
0 0 0 7 3 6 23 0 0 0 0 0 0 2 0 48 13 0 4 1 0 1 0 0 0 0 0 2712 3022 3001 2738 2715 2197 1769 1299 845 636 1623 1339 1549 1248 1277 1612 1033
0 0 16 6 6 22 7 0 0 0 0 0 12 0 0 1 1 4 0 0 2 9 0 0 0 0 1038 2902 2979 2931 2685 2509 2129 1769 1361 712 817 1171 1629 1572 1400 1066 1022 172
0 0 0 3 0 1 0 0 3 1 14 3 0 0 0 47 15 23 60 3 0 8 2 0 0 1 2478 3089 3073 2848 2555 2268 2107 1709 1339 996 896 1043 1098 1124 916 780 206 94
0 0 0 0 0 0 1 0 0 24 0 0 0 0 95 73 141 82 167 57 0 4 1 0 0 0 2582 3007 3153 2909 2316 2078 2016 1482 1223 1013 1082 1205 1351 1050 871 513 118 12
0 0 0 0 0 0 0 0 0 0 0 0 0 1 101 20 154 141 214 95 2 3 0 0 6 0 2365 2599 2700 2845 2179 1939 1678 1157 1071 917 1294 1219 1313 1010 919 162 18 0
0 0 0 0 0 0 0 0 0 0 0 6 11 1 8 48 55 200 176 62 102 95 59 13 41 0 2034 2302 2765 2330 1804 1552 1343 893 1013 1124 1250 1215 1101 977 246 1 0 0
0 0 0 0 0 0 0 0 0 0 0 0 0 0 15 32 90 68 62 136 157 95 34 6 1 6 1872 2444 2334 1836 1503 1283 943 1300 773 696 717 763 864 329 0 0 0 0
0 0 0 0 0 0 0 0 0 0 0 1 3 0 0 20 1 43 11 35 1 39 47 164 0 1341 2266 2068 1739 1531 1171 1059 887 1353 455 559 584 684 400 5 0 0 0 0
0 0 0 0 0 0 0 0 0 0 0 4 0 0 0 0 0 18 6 0 11 39 325 939 1221 1307 1171 1149 1089 1059 997 945 862 474 376 485 466 251 6 0 0 0 0 0
0 0 0 0 0 0 0 3 0 0 0 0 0 0 0 0 0 0 17 65 27 293 302 815 1022 961 748 589 700 659 362 604 30 328 263 196 231 0 7 10 0 0 0 0
0 0 0 0 0 0 2 1 10 1 48 45 9 0 0 0 0 0 0 24 20 315 394 1025 868 622 470 530 399 192 67 96 122 98 125 92 18 31 25 1 14 7 0 5
0 0 0 0 0 0 0 2 1 1 8 11 14 1 62 18 7 16 27 91 0 62 216 684 563 277 249 147 38 77 168 2 89 115 79 39 40 27 29 71 31 4 0 0
0 0 0 0 0 0 5 0 0 0 0 0 0 2 4 0 0 8 297 163 123 78 222 243 174 125 130 31 38 0 3 40 90 95 138 74 66 88 66 10 0 0 0 0
0 0 0 0 0 0 0 0 1 7 0 0 0 0 0 1 0 0 292 0 20 151 80 300 192 251 105 94 0 0 30 53 274 188 132 111 161 41 2 0 0 0 0 0
0 0 0 0 0 10 1 0 0 3 0 0 0 0 1 8 4 2 190 1 2 182 205 466 562 571 467 150 22 108 99 205 162 124 143 128 6 0 0 0 0 0 0 0
0 0 0 0 0 0 0 0 0 0 1 3 0 2 42 15 1 64 147 16 26 121 378 351 351 346 283 183 230 215 174 208 245 200 9 0 0 0 0 0 0 0 0 0
0 0 0 0 0 0 0 0 0 0 1 38 25 46 28 11 14 94 70 63 171 121 245 464 139 114 222 281 247 245 163 147 46 0 0 0 0 0 0 0 0 0 0 0
0 0 0 0 0 0 0 0 0 36 48 153 95 46 0 1 8 77 105 80 4 99 146 170 201 213 273 337 193 122 45 12 0 0 0 0 0 0 0 0 0 0 0 0
0 0 0 0 0 0 0 0 0 3 43 29 57 37 49 10 2 8 18 123 114 58 99 193 251 238 269 265 149 88 75 70 29 0 0 0 0 0 0 0 0 0 0 0
0 0 0 0 0 0 0 0 0 6 12 46 33 0 27 40 20 3 14 184 188 199 182 219 166 173 271 210 137 74 50 4 0 0 0 0 0 0 0 0 0 0 0 0
CIN
-0 -0 -0 -0 -26 -46 -5 -51 -93 -60 -35 -7 -12 -8 -0 -0 -0 -0 -0 -0 -0 -0 -0 -0 -0 -0 -23 -54 -93 -119 -51 -235 -93 -40 -126 -24 -126 -47 -139 -145 -166 -116 -244 -146
-0 -0 -2 -3 -3 -4 -20 -11 -25 -60 -60 -28 -31 -38 -0 -19 -0 -32 -0 -0 -0 -0 -0 -0 -0 -0 -22 -70 -48 -116 -79 -25 -15 -86 -50 -19 -37 -45 -82 -94 -104 -123 -102 -133
-0 -0 -2 -3 -4 -12 -11 -10 -12 -43 -69 -52 -20 -5 -0 -93 -50 -0 -0 -0 -0 -0 -0 -0 -0 -0 -0 -101 -52 -36 -67 -48 -63 -97 -38 -12 -15 -55 -65 -85 -59 -22 -46 -73
-0 -0 -0 -0 -0 -2 -8 -8 -11 -17 -9 -0 -15 -13 -165 -0 -63 -110 -81 -0 -0 -0 -0 -0 -0 -0 -0 -138 -84 -79 -54 -77 -76 -90 -40 -41 -21 -51 -62 -38 -24 -36 -50 -60
-0 -0 -0 -0 -0 -0 -0 -7 -5 -6 -6 -1 -0 -5 -0 -129 -75 -20 -0 -0 -0 -0 -0 -0 -0 -0 -0 -103 -61 -117 -85 -76 -134 -128 -71 -81 -13 -33 -32 -26 -44 -47 -27 -27
-0 -0 -0 -0 -12 -2 -2 -3 -10 -8 -10 -0 -0 -11 -0 -0 -0 -0 -1 -0 -0 -0 -0 -0 -0 -0 -0 -153 -86 -124 -115 -106 -110 -122 -49 -66 -15 -34 -41 -51 -61 -48 -50 -3
-0 -0 -0 -2 -2 -10 -9 -0 -0 -0 -0 -0 -0 -13 -0 -120 -64 -15 -28 -10 -0 -1 -0 -0 -0 -0 -0 -71 -87 -114 -111 -81 -60 -46 -17 -57 -21 -50 -62 -67 -61 -37 -6 -42
-0 -0 -10 -5 -12 -4 -3 -0 -0 -0 -0 -0 -18 -0 -0 -14 -22 -27 -0 -7 -25 -9 -0 -0 -0 -0 -126 -91 -84 -96 -86 -38 -45 -10 -7 -6 -123 -33 -42 -78 -72 -130 -55 -221
-0 -0 -0 -2 -0 -1 -0 -0 -24 -7 -4 -0 -0 -14 -62 -20 -68 -29 -14 -66 -0 -35 -14 -0 -0 -17 -40 -58 -67 -83 -86 -54 -31 -5 -33 -39 -2 -20 -76 -102 -126 -161 -210 -217
-0 -0 -0 -0 -0 -0 -0 -0 -0 -0 -0 -0 -0 -10 -53 -31 -32 -55 -39 -25 -0 -66 -74 -0 -0 -2 -41 -56 -67 -87 -104 -50 -23 -9 -25 -36 -46 -37 -82 -150 -140 -108 -234 -320
-0 -0 -0 -0 -0 -0 -0 -0 -0 -0 -0 -0 -0 -9 -39 -44 -55 -33 -47 -32 -55 -5 -2 -2 -23 -0 -26 -49 -75 -78 -75 -55 -31 -62 -26 -42 -20 -65 -94 -88 -87 -299 -372 -0
-0 -0 -0 -0 -0 -0 -0 -0 -0 -0 -0 -2 -0 -1 -48 -23 -26 -86 -26 -88 -84 -81 -102 -26 -11 -0 -27 -39 -55 -66 -85 -52 -44 -25 -12 -13 -17 -44 -66 -46 -179 -22 -15 -0
-0 -0 -0 -0 -0 -0 -0 -0 -0 -0 -0 -0 -0 -0 -51 -36 -67 -68 -82 -214 -198 -83 -82 -68 -0 -37 -33 -44 -65 -100 -88 -26 -16 -0 -28 -61 -83 -95 -95 -78 -13 -0 -0 -0
-0 -0 -0 -0 -0 -0 -0 -0 -0 -0 -0 -0 -9 -0 -0 -104 -82 -125 -11 -183 -25 -36 -105 -117 -0 -43 -40 -43 -60 -87 -47 -17 -7 -0 -79 -91 -99 -77 -96 -238 -0 -0 -0 -0
-0 -0 -0 -0 -0 -0 -0 -0 -0 -0 -0 -1 -0 -0 -0 -17 -0 -68 -71 -0 -27 -111 -88 -135 -74 -50 -46 -31 -35 -24 -18 -0 -0 -51 -72 -101 -77 -53 -139 -0 -0 -0 -0 -0
-0 -0 -0 -0 -0 -0 -0 -5 -0 -0 -0 -0 -0 -0 -0 -0 -0 -2 -69 -49 -152 -75 -88 -32 -87 -56 -63 -53 -16 -18 -0 -0 -0 -42 -47 -79 -40 -1 -79 -209 -15 -0 -0 -2
-0 -0 -0 -0 -0 -0 -1 -0 -0 -1 -6 -8 -26 -0 -0 -0 -0 -0 -0 -43 -40 -46 -11 -1 -62 -53 -62 -36 -52 -3 -0 -0 -0 -3 -92 -47 -196 -128 -194 -107 -238 -154 -19 -110
-0 -0 -0 -0 -0 -0 -0 -0 -1 -0 -7 -31 -53 -52 -73 -126 -136 -148 -127 -184 -0 -2 -22 -23 -50 -70 -52 -52 -65 -6 -2 -0 -0 -5 -16 -85 -109 -198 -195 -160 -112 -36 -0 -0
-0 -0 -0 -0 -0 -0 -1 -0 -0 -0 -1 -0 -0 -13 -170 -0 -95 -145 -43 -103 -77 -10 -3 -10 -44 -64 -86 -104 -56 -0 -0 -5 -43 -22 -14 -86 -124 -144 -107 -129 -0 -0 -0 -0
-0 -0 -0 -0 -0 -0 -0 -0 -0 -0 -0 -0 -0 -14 -0 -0 -0 -1 -0 -7 -134 -5 -39 -12 -46 -45 -98 -22 -0 -0 -17 -42 -0 -24 -39 -59 -43 -93 -91 -0 -0 -0 -0 -0
-0 -0 -0 -0 -0 -1 -2 -0 -0 -12 -11 -0 -0 -0 -2 -0 -3 -0 -9 -36 -5 -2 -0 -0 -0 -0 -1 -1 -12 -0 -5 -3 -25 -40 -74 -77 -118 -0 -0 -0 -0 -0 -0 -0
-0 -0 -0 -0 -0 -0 -0 -0 -0 -0 -0 -1 -0 -0 -0 -4 -0 -21 -18 -142 -6 -0 -0 -0 -0 -1 -0 -11 -22 -23 -53 -52 -52 -41 -38 -0 -0 -0 -0 -0 -0 -0 -0 -0
-0 -0 -0 -0 -0 -0 -0 -0 -0 -0 -6 -1 -0 -0 -2 -4 -27 -79 -54 -1 -0 -5 -0 -0 -7 -27 -5 -22 -60 -89 -111 -70 -117 -0 -0 -0 -0 -0 -0 -0 -0 -0 -0 -0
-0 -0 -0 -0 -0 -0 -0 -0 -1 -33 -0 -0 -29 -18 -0 -23 -78 -31 -10 -0 -0 -1 -5 -23 -47 -68 -51 -36 -53 -90 -137 -165 -4 -0 -0 -0 -0 -0 -0 -0 -0 -0 -0 -0
-0 -0 -0 -0 -0 -0 -0 -0 -0 -2 -2 -12 -0 -30 -40 -23 -3 -59 -27 -2 -0 -18 -43 -81 -84 -85 -58 -34 -38 -42 -84 -77 -59 -0 -0 -0 -0 -0 -0 -0 -0 -0 -0 -0
-0 -0 -0 -0 -0 -0 -0 -0 -0 -3 -2 -3 -8 -0 -23 -4 -0 -11 -0 -0 -3 -19 -38 -56 -115 -116 -66 -65 -69 -77 -50 -15 -0 -0 -0 -0 -0 -0 -0 -0 -0 -0 -0 -0
Wind_Speed
nan nan nan nan nan nan nan nan nan nan nan nan nan nan nan nan nan nan nan nan nan nan nan nan nan nan 69 52 69 64 44 35 44 38 38 37 34 34 31 28 31 32 33 31
nan nan nan nan nan nan nan nan nan nan nan nan nan nan nan nan nan nan nan nan nan nan nan nan nan nan nan 52 51 57 61 37 46 33 36 40 40 40 34 35 36 35 36 36
nan nan nan nan nan nan nan nan nan nan nan nan nan nan nan nan nan nan nan nan nan nan nan nan nan nan nan 52 51 48 52 54 51 34 41 48 50 44 39 40 37 37 38 37
nan nan nan nan nan nan nan nan nan nan nan nan nan nan nan nan nan nan nan nan nan nan nan nan nan nan nan 52 53 48 51 55 54 46 43 56 47 41 38 42 43 40 41 41
nan nan nan nan nan nan nan nan nan nan nan nan nan nan nan nan nan nan nan nan nan nan nan nan nan nan nan 55 53 52 51 51 48 43 51 59 55 40 48 51 50 42 40 41
nan nan nan nan nan nan nan nan nan nan nan nan nan nan nan nan nan nan nan nan nan nan nan nan nan nan nan 56 56 48 43 47 49 49 54 58 43 45 49 47 46 45 41 39
nan nan nan nan nan nan nan nan nan nan nan nan nan nan nan nan nan nan nan nan nan nan nan nan nan nan nan 57 52 45 40 45 50 55 52 64 61 47 47 45 55 46 44 25
nan nan nan nan nan nan nan nan nan nan nan nan nan nan nan nan nan nan nan nan nan nan nan nan nan nan 60 53 48 43 41 42 47 50 52 60 61 49 33 47 47 32 39 28
nan nan nan nan nan nan nan nan nan nan nan nan nan nan nan nan nan nan nan nan nan nan nan nan nan nan 57 52 43 41 39 37 36 41 52 56 63 66 66 52 45 37 31 nan
nan nan nan nan nan nan nan nan nan nan nan nan nan nan nan nan 24 nan 32 nan nan nan nan nan nan nan 56 49 42 37 33 36 33 36 52 58 61 62 52 48 46 45 37 nan
nan nan nan nan nan nan nan nan nan nan nan nan nan nan 22 nan 20 19 26 nan nan nan nan nan nan nan 51 48 39 32 37 38 36 44 52 55 58 56 52 53 46 46 nan nan
nan nan nan nan nan nan nan nan nan nan nan nan nan nan nan nan nan 22 20 nan 57 nan nan nan nan nan 46 41 31 37 44 42 48 52 45 52 53 54 55 55 42 nan nan nan
nan nan nan nan nan nan nan nan nan nan nan nan nan nan nan nan nan nan nan 63 57 nan nan nan nan nan 42 35 37 45 49 54 56 43 48 50 47 53 53 41 nan nan nan nan
nan nan nan nan nan nan nan nan nan nan nan nan nan nan nan nan nan nan nan nan nan nan nan 71 nan 45 40 43 50 48 55 56 54 46 47 53 53 51 48 nan nan nan nan nan
nan nan nan nan nan nan nan nan nan nan nan nan nan nan nan nan nan nan nan nan nan nan 74 55 55 60 64 62 63 52 58 50 63 56 54 51 52 45 nan nan nan nan nan nan
nan nan nan nan nan nan nan nan nan nan nan nan nan nan nan nan nan nan nan nan nan 67 54 64 58 61 62 66 57 62 64 57 nan 76 63 58 43 nan nan nan nan nan nan nan
nan nan nan nan nan nan nan nan nan nan nan nan nan nan nan nan nan nan nan nan nan 52 48 52 54 56 58 59 57 50 nan nan 50 nan 49 nan nan nan nan nan nan nan nan nan
nan nan nan nan nan nan nan nan nan nan nan nan nan nan nan nan nan nan nan nan nan nan 36 47 55 55 52 53 nan nan 59 nan nan 47 nan nan nan nan nan nan nan nan nan nan
nan nan nan nan nan nan nan nan nan nan nan nan nan nan nan nan nan nan 68 58 62 nan 38 44 48 47 45 nan nan nan nan nan nan nan 12 nan nan nan nan nan nan nan nan nan
nan nan nan nan nan nan nan nan nan nan nan nan nan nan nan nan nan nan 76 nan nan 27 nan 39 45 49 47 nan nan nan nan nan 13 9 9 17 19 nan nan nan nan nan nan nan
nan nan nan nan nan nan nan nan nan nan nan nan nan nan nan nan nan nan 59 nan nan 34 23 30 37 47 46 35 nan 9 nan 9 7 11 20 19 nan nan nan nan nan nan nan nan
nan nan nan nan nan nan nan nan nan nan nan nan nan nan nan nan nan nan 60 nan nan 37 30 36 35 37 41 31 22 10 8 10 18 20 nan nan nan nan nan nan nan nan nan nan
nan nan nan nan nan nan nan nan nan nan nan nan nan nan nan nan nan nan nan nan 32 40 50 40 39 36 27 26 22 20 17 19 nan nan nan nan nan nan nan nan nan nan nan nan
nan nan nan nan nan nan nan nan nan nan nan 20 nan nan nan nan nan nan 31 nan nan nan 41 39 33 33 30 30 30 27 nan nan nan nan nan nan nan nan nan nan nan nan nan nan
nan nan nan nan nan nan nan nan nan nan nan nan nan nan nan nan nan nan nan 36 31 nan nan 35 28 27 27 27 24 nan nan nan nan nan nan nan nan nan nan nan nan nan nan nan
nan nan nan nan nan nan nan nan nan nan nan nan nan nan nan nan nan nan nan 49 31 27 30 34 32 30 28 27 26 nan nan nan nan nan nan nan nan nan nan nan nan nan nan nan
Wind_Direction
nan nan nan nan nan nan nan nan nan nan nan nan nan nan nan nan nan nan nan nan nan nan nan nan nan nan 229 240 250 259 266 249 242 235 227 222 243 243 254 268 269 276 281 289
nan nan nan nan nan nan nan nan nan nan nan nan nan nan nan nan nan nan nan nan nan nan nan nan nan nan nan 246 244 242 247 250 211 219 226 226 236 239 245 257 260 271 278 285
nan nan nan nan nan nan nan nan nan nan nan nan nan nan nan nan nan nan nan nan nan nan nan nan nan nan nan 243 246 239 232 251 244 249 232 232 234 240 244 252 259 266 276 276
nan nan nan nan nan nan nan nan nan nan nan nan nan nan nan nan nan nan nan nan nan nan nan nan nan nan nan 232 245 244 236 235 242 252 249 242 244 239 247 254 254 262 272 274
nan nan nan nan nan nan nan nan nan nan nan nan nan nan nan nan nan nan nan nan nan nan nan nan nan nan nan 231 239 244 239 236 245 241 253 256 239 238 242 249 255 258 262 272
nan nan nan nan nan nan nan nan nan nan nan nan nan nan nan nan nan nan nan nan nan nan nan nan nan nan nan 231 236 241 247 241 239 247 254 255 263 238 242 251 256 259 262 268
nan nan nan nan nan nan nan nan nan nan nan nan nan nan nan nan nan nan nan nan nan nan nan nan nan nan nan 230 232 235 240 239 237 241 245 252 234 239 234 255 260 253 255 294
nan nan nan nan nan nan nan nan nan nan nan nan nan nan nan nan nan nan nan nan nan nan nan nan nan nan 228 230 230 235 240 242 246 241 243 251 263 266 232 258 251 279 270 286
nan nan nan nan nan nan nan nan nan nan nan nan nan nan nan nan nan nan nan nan nan nan nan nan nan nan 227 227 226 232 240 245 254 250 243 246 248 248 270 276 280 282 279 nan
nan nan nan nan nan nan nan nan nan nan nan nan nan nan nan nan 284 nan 199 nan nan nan nan nan nan nan 216 225 220 224 236 251 252 247 243 236 242 254 261 262 274 278 277 nan
nan nan nan nan nan nan nan nan nan nan nan nan nan nan 279 nan 254 248 196 nan nan nan nan nan nan nan 212 220 214 216 229 242 242 241 242 246 248 251 258 262 269 280 nan nan
nan nan nan nan nan nan nan nan nan nan nan nan nan nan nan nan nan 257 208 nan 203 nan nan nan nan nan 210 216 209 215 229 234 235 240 245 244 244 248 251 258 265 nan nan nan
nan nan nan nan nan nan nan nan nan nan nan nan nan nan nan nan nan nan nan 179 173 nan nan nan nan nan 203 206 207 217 229 231 237 240 241 236 239 246 247 256 nan nan nan nan
nan nan nan nan nan nan nan nan nan nan nan nan nan nan nan nan nan nan nan nan nan nan nan 150 nan 196 194 203 208 216 229 235 240 240 234 235 241 247 251 nan nan nan nan nan
nan nan nan nan nan nan nan nan nan nan nan nan nan nan nan nan nan nan nan nan nan nan 152 169 193 195 203 204 207 218 227 236 243 233 228 235 238 228 nan nan nan nan nan nan
nan nan nan nan nan nan nan nan nan nan nan nan nan nan nan nan nan nan nan nan nan 159 163 166 205 213 208 212 216 224 223 223 nan 225 218 224 227 nan nan nan nan nan nan nan
nan nan nan nan nan nan nan nan nan nan nan nan nan nan nan nan nan nan nan nan nan 156 168 176 201 215 215 218 218 220 nan nan 209 nan 203 nan nan nan nan nan nan nan nan nan
nan nan nan nan nan nan nan nan nan nan nan nan nan nan nan nan nan nan nan nan nan nan 189 197 201 210 217 223 nan nan 209 nan nan 193 nan nan nan nan nan nan nan nan nan nan
nan nan nan nan nan nan nan nan nan nan nan nan nan nan nan nan nan nan 159 165 177 nan 179 200 205 211 224 nan nan nan nan nan nan nan 151 nan nan nan nan nan nan nan nan nan
nan nan nan nan nan nan nan nan nan nan nan nan nan nan nan nan nan nan 162 nan nan 175 nan 189 203 212 221 nan nan nan nan nan 138 145 208 229 232 nan nan nan nan nan nan nan
nan nan nan nan nan nan nan nan nan nan nan nan nan nan nan nan nan nan 165 nan nan 200 202 184 210 205 218 231 nan 207 nan 132 145 215 228 230 nan nan nan nan nan nan nan nan
nan nan nan nan nan nan nan nan nan nan nan nan nan nan nan nan nan nan 184 nan nan 202 203 211 203 205 209 219 241 231 203 204 230 236 nan nan nan nan nan nan nan nan nan nan
nan nan nan nan nan nan nan nan nan nan nan nan nan nan nan nan nan nan nan nan 167 174 203 201 197 204 192 202 197 219 217 237 nan nan nan nan nan nan nan nan nan nan nan nan
nan nan nan nan nan nan nan nan nan nan nan 137 nan nan nan nan nan nan 165 nan nan nan 178 190 189 193 201 200 206 209 nan nan nan nan nan nan nan nan nan nan nan nan nan nan
nan nan nan nan nan nan nan nan nan nan nan nan nan nan nan nan nan nan nan 195 167 nan nan 180 180 196 209 217 219 nan nan nan nan nan nan nan nan nan nan nan nan nan nan nan
nan nan nan nan nan nan nan nan nan nan nan nan nan nan nan nan nan nan nan 182 171 172 175 185 189 199 204 210 223 nan nan nan nan nan nan nan nan nan nan nan nan nan nan nan